Home   Weather   Thiruvananthapuram   Past weeks

Flag for India Past Weather in Thiruvananthapuram, Kerala, India — Yesterday and Last 2 Weeks

Now
82 °F

Passing clouds.


Feels Like: 89 °F
Forecast: 76 / 87 °F
Wind: No wind

Location: Thiruvananthapuram

Current Time: Dec 8, 2016 at 11:52:59 pm

Latest Report: Dec 8, 2016 at 11:00 pm


Visibility: 2 mi

Pressure: 29.89 "Hg

Humidity: 79%

Dew Point: 75 °F

Location of ThiruvananthapuramLocation

Past Weather in Thiruvananthapuram — Graph

°F

Thiruvananthapuram Temperature Yesterday

Maximum temperature yesterday: 88 °F (at 1:00 pm)
Minimum temperature yesterday: 77 °F (at 4:30 am)
Average temperature yesterday: 82 °F

High & Low Weather Summary for the Past Weeks

 TemperatureHumidityPressure
High90 °F (Nov 25, 3:30 pm)100% (Dec 5, 10:00 pm)29.95 "Hg (Dec 5, 10:00 pm)
Low77 °F (Nov 29, 5:30 am)51% (Dec 2, 8:30 am)29.71 "Hg (Nov 25, 3:00 pm)
Average83 °F78%29.84 "Hg
* Reported Nov 23 10:30 pm — Dec 8 10:30 pm, Thiruvananthapuram, Weather by CustomWeather, © 2016

Note: Actual official high and low records may vary slightly from our data, if they occured in-between our weather recording intervals... More about our weather records

Advertising

Thiruvananthapuram Weather History for the Previous 24 Hours

Scroll right to see more
 ConditionsComfort  
Time TempWeatherWind HumidityBarometerVisibility
10:30 pm
Thu, Dec 8
82 °FPassing clouds.No wind79%29.89 "Hg2 mi
10:00 pm82 °FPassing clouds.2 mph84%29.92 "Hg2 mi
9:30 pm84 °FPassing clouds.No wind74%29.92 "Hg2 mi
9:00 pm84 °FPassing clouds.2 mph74%29.89 "Hg2 mi
8:30 pm84 °FPassing clouds.3 mph74%29.89 "Hg2 mi
8:00 pm84 °FPassing clouds.3 mph74%29.89 "Hg2 mi
7:30 pm84 °FPassing clouds.5 mph74%29.86 "Hg2 mi
7:00 pm84 °FPassing clouds.5 mph74%29.86 "Hg2 mi
6:30 pm84 °FScattered clouds.5 mph74%29.86 "Hg2 mi
6:00 pm84 °FScattered clouds.6 mph74%29.83 "Hg3 mi
5:30 pm86 °FScattered clouds.6 mph70%29.83 "Hg3 mi
5:00 pm86 °FScattered clouds.7 mph70%29.80 "Hg4 mi
4:30 pm86 °FScattered clouds.7 mph66%29.80 "Hg4 mi
4:00 pm88 °FScattered clouds.7 mph66%29.80 "Hg4 mi
3:30 pm88 °FScattered clouds.8 mph70%29.80 "Hg4 mi
3:00 pm88 °FScattered clouds.8 mph66%29.80 "Hg4 mi
2:30 pm88 °FScattered clouds.9 mph66%29.80 "Hg4 mi
2:00 pm86 °FScattered clouds.8 mph70%29.83 "Hg4 mi
1:30 pm86 °FScattered clouds.9 mph70%29.83 "Hg4 mi
1:00 pm86 °FScattered clouds.8 mph75%29.83 "Hg4 mi
12:30 pm86 °FPartly sunny.7 mph75%29.86 "Hg4 mi
12:00 pm86 °FPartly sunny.7 mph75%29.89 "Hg4 mi
11:30 am86 °FPartly sunny.6 mph70%29.89 "Hg4 mi
11:00 am86 °FPassing clouds.7 mph70%29.89 "Hg4 mi
10:30 am86 °FPassing clouds.7 mph70%29.89 "Hg4 mi
10:00 am86 °FScattered clouds.5 mph70%29.89 "Hg3 mi
9:30 am84 °FScattered clouds.3 mph79%29.92 "Hg3 mi
9:00 am82 °FScattered clouds.2 mph84%29.92 "Hg2 mi
8:00 am81 °FFog.No wind84%29.89 "Hg1 mi
7:00 am79 °FFog.2 mph89%29.86 "Hg1 mi
6:30 am79 °FDrizzle. Fog.No wind89%29.86 "Hg1 mi
6:00 am79 °FFog.2 mph89%29.86 "Hg1 mi
5:30 am79 °FFog.No wind89%29.83 "Hg1 mi
5:00 am79 °FFog.5 mph89%29.83 "Hg1 mi
4:30 am79 °FFog.3 mph89%29.83 "Hg1 mi
4:00 am79 °FPartly cloudy.3 mph89%29.83 "Hg1 mi
3:30 am79 °FRain. Mostly cloudy.3 mph89%29.83 "Hg1 mi
3:00 am81 °FPassing clouds.No wind84%N/A2 mi
2:30 am81 °FPassing clouds.3 mph84%29.83 "Hg2 mi
2:00 am81 °FPassing clouds.No wind84%29.83 "Hg2 mi
1:30 am81 °FPassing clouds.No wind84%29.86 "Hg2 mi
1:00 am82 °FPassing clouds.No wind79%29.86 "Hg2 mi
12:00 am82 °FPassing clouds.3 mph79%29.86 "Hg2 mi
11:30 pm
Wed, Dec 7
82 °FPassing clouds.3 mph79%29.89 "Hg2 mi
11:00 pm82 °FPassing clouds.5 mph79%29.89 "Hg2 mi
Weather by CustomWeather, © 2016

See weather overviewHow to use our weather pages